Location: ?astrovice
(49.6513°N, 14.9287°E)
Time: 04:41:30
(UTC+00:00)

Terra - Pass Details

Date: 09 April 2020
Orbit: 701 x 703 km, 98.2° (Epoch: 01 June)

Event Time Altitude Azimuth Distance (km) Brightness Sun altitude
Exits shadow 22:08:25 20° 278° (W) 1,622 3.9 -31.2°
Drops below altitude 10° 22:11:23 10° 317° (NW) 2,182 5.0 -31.3°
Sets 22:14:13 0° 334° (NNW) 3,106 6.2 -31.4°
